Regional Weather Roundup
Issued by NWS Mt. Holly, NJ

Home | Current Version | Previous Version | Text Only | Print | Product List | Glossary On
Versions: 1 2 3 4 5 6 7 8 9 10 11 12 13 14 15 16 17 18 19 20 21 22 23 24 25 26 27
000
ASUS41 KPHI 310510
RWRPHI

REGIONAL WEATHER ROUNDUP
NATIONAL WEATHER SERVICE MOUNT HOLLY NJ
100 AM EDT FRI OCT 31 2014

NOTE:  "FAIR" INDICATES FEW OR NO CLOUDS BELOW 12,000 FEET WITH NO
SIGNIFICANT WEATHER AND/OR OBSTRUCTIONS TO VISIBILITY.

 * = STATION DOES NOT REPORT PRECIPITATION (E.G. RAIN, SNOW, ETC.)
        OR FOG.

NJZ015>026-310600-
SOUTHERN NEW JERSEY

CITY           SKY/WX    TMP DP  RH WIND       PRES   REMARKS
POMONA         CLEAR     40  35  83 NW3       30.03S
RIO GRANDE*    CLEAR     43  34  70 N6        30.04S
MILLVILLE      CLEAR     37  35  92 CALM      30.03S
WRIGHTSTOWN    CLEAR     38  35  87 CALM      30.01S
MOUNT HOLLY    CLEAR     36  34  92 CALM      30.03S
TRENTON        CLEAR     40  33  76 NW5       30.02S

$$
NJZ001>014-310600-
NORTHERN NEW JERSEY

CITY           SKY/WX    TMP DP  RH WIND       PRES   REMARKS
SUSSEX         CLEAR     32  29  88 CALM      30.02F
ANDOVER*         N/A     33  31  92 CALM      30.03S
MORRISTOWN     CLEAR     36  32  87 CALM      30.03S
NEWARK         PTCLDY    47  34  60 N9        30.02S
TETERBORO      CLEAR     45  34  65 N3        30.02S
CALDWELL       CLEAR     38  32  79 CALM      30.03S
SOMERVILLE     CLEAR     34  31  88 CALM      30.01F
ALLAIRE*       CLEAR     39  30  70 NW5       30.02S
TOMS RIVER*    CLEAR     32  28  86 CALM      30.02F

$$
PAZ043-044-047-054-055-060>062-066>071-310600-
EASTERN PENNSYLVANIA

CITY           SKY/WX    TMP DP  RH WIND       PRES   REMARKS
PHILADELPHIA   CLEAR     46  34  62 NW6       30.04S
NORTH PHILA    CLEAR     39  32  76 CALM      30.05S
BLUE BELL      CLEAR     36  34  93 CALM      30.03S
DOYLESTOWN     CLEAR     35  33  92 CALM      30.03S
QUAKERTOWN*    CLEAR     32  32 100 CALM      30.04S
POTTSTOWN      CLEAR     35  32  88 CALM      30.05S
LANCASTER      CLOUDY    44  39  82 CALM      30.03F
COATESVILLE    MOCLDY    41  36  81 CALM      30.03S
READING        CLEAR     39  34  82 CALM      30.03S
ALLENTOWN      CLEAR     33  30  88 SW3       30.04S
MOUNT POCONO   CLEAR     27  24  89 CALM      29.99S
HAZLETON       CLEAR     32  32 100 CALM      30.04R
WILKES BARRE   CLEAR     38  31  76 E6        30.01F WCI  33

$$
DEZALL-MDZ008-012-015-019-020-310600-
DELAWARE AND EASTERN MARYLAND

CITY           SKY/WX    TMP DP  RH WIND       PRES   REMARKS
WILMINGTON     CLEAR     41  38  89 N3        30.04F
DOVER          PTCLDY    42  39  89 N3        30.01S
GEORGETOWN     CLEAR     46  38  73 N3        30.03F
EASTON         CLEAR     45  42  86 CALM      30.06S
PATUXENT       CLEAR     46  39  76 CALM      30.03S
OCEAN CITY     CLEAR     44  39  82 NW6       30.01F
WALLOPS ISLAND CLEAR     47  39  74 N6        30.02S
CAMBRIDGE      CLEAR     45  37  76 CALM      30.02S
SALISBURY      CLEAR     47  38  71 N5        30.02S

$$
PAZ001-021-NYZ056-072-MDZ011-DCZ001-310600-
OTHER NEARBY LOCATIONS

CITY           SKY/WX    TMP DP  RH WIND       PRES   REMARKS
HARRISBURG     CLOUDY    48  39  71 CALM      30.03S
STATE COLLEGE  CLOUDY    39  34  82 CALM      30.02S
WILLIAMSPORT   CLEAR     36  30  79 CALM      30.03S
BINGHAMTON     PTCLDY    38  30  73 N3        30.00S
NEW YORK CITY  CLEAR     47  35  63 CALM      30.04S
BALTIMORE      MOCLDY    47  41  80 CALM      30.02F
WASHINGTON DC  PTCLDY    49  36  61 NW6       30.04F

$$



USA.gov is the U.S. government's official web portal to all federal, state and local government web resources and services.